Regional Weather Roundup
Issued by NWS Albany, NY

Current Version | Previous Version | Graphics & Text | Print | Product List | Glossary Off
Versions: 1 2 3 4 5 6 7 8 9 10 11 12 13 14 15 16 17 18 19 20 21 22 23 24 25 26 27 28 29 30 31 32 33 34 35 36 37 38 39 40 41 42 43 44 45 46 47 48 49 50

000
ASUS41 KALY 291210
RWRALY

NEW YORK STATE HOURLY WEATHER ROUNDUP
NATIONAL WEATHER SERVICE ALBANY NY
800 AM EDT TUE JUL 29 2014

NOTE: "FAIR" INDICATES FEW OR NO CLOUDS BELOW 12,000 FEET WITH NO
SIGNIFICANT WEATHER AND/OR NO OBSTRUCTIONS TO VISIBILITY.

NYZ032-033-038>043-046>054-057>066-NYZ062>081-291300-
EAST


CITY           SKY/WX    TMP DP  RH WIND       PRES   REMARKS
ALBANY         MOSUNNY   61  53  75 NW7       29.82R
GLENS FALLS    SUNNY     62  52  69 NW8       29.79R
POUGHKEEPSIE   SUNNY     64  54  69 VRB3      29.82R
NEWBURGH       SUNNY     61  57  88 W12       29.85R
MONTGOMERY     SUNNY     63  53  70 W9        29.84R
WHITE PLAINS   SUNNY     64  55  72 NW8       29.83R
ISLIP          MOSUNNY   69  56  62 NW7       29.81R
NEW YORK CITY  MOSUNNY   65  54  67 NW13      29.84R
CENTRAL PARK   SUNNY     64  53  67 VRB3      29.87R
$$

NYZ005>009-017-018-044>046-055-056-291300-
CENTRAL


CITY           SKY/WX    TMP DP  RH WIND       PRES   REMARKS
FULTON         SUNNY     58  56  93 CALM      29.86R
SYRACUSE       MOSUNNY   58  57  97 W7        29.86R
ROME           PTSUNNY   55  53  93 CALM      29.86R
ELMIRA         CLOUDY    57  54  89 SW6       29.90R
BINGHAMTON     CLOUDY    55  53  93 W7        29.89R
MONTICELLO     MOSUNNY   55  54  94 W6        29.88R
$$

NYZ026>034-041>043-291300-
NORTH


CITY           SKY/WX    TMP DP  RH WIND       PRES   REMARKS
WATERTOWN      SUNNY     60  51  72 CALM      29.86R
FORT DRUM      NOT AVBL
MASSENA        SUNNY     57  52  83 W7        29.82R
SARANAC LAKE   CLOUDY    50  49  96 W5        29.81R
PLATTSBURGH    MOSUNNY   59  52  77 VRB7      29.77R
$$

NYZ001>004-010>016-019>021-291300-
WEST


CITY           SKY/WX    TMP DP  RH WIND       PRES   REMARKS
NIAGARA FALLS  CLOUDY    59  54  83 NW8       29.91R
BUFFALO        CLOUDY    58  54  86 W5        29.92R
DUNKIRK        CLOUDY    60  54  80 CALM      29.93R
JAMESTOWN      CLOUDY    55  52  88 NW3       29.95R
WELLSVILLE     CLOUDY    54  50  86 W3        29.95R
ROCHESTER      CLOUDY    58  55  90 W5        29.90R
PENN YAN       CLOUDY    59  53  80 W7        29.90R
$$

             KEY
       WCI = WIND CHILL INDEX
       VSB = VISIBILITY
       HX  = HEAT INDEX
$$


USA.gov is the U.S. government's official web portal to all federal, state and local government web resources and services.